SCP
0 0 0 -0 -0 -0 0 0 0 0 0 0 0 0 0 0 0 0 0 0 0 0 0 0 0 0 0 0 0 0 0 0 0 0 0 0 0 0 0 0 0 0 0 0
0 0 -0 -0 -0 -0 0 0 0 0 0 0 0 0 0 0 0 0 0 0 0 0 0 0 0 0 0 0 0 0 0 0 0 0 0 0 0 0 0 0 0 0 0 0
0 0 -0 -0 -0 -0 0 0 0 0 0 0 0 0 0 0 0 0 0 0 0 0 0 0 0 0 0 0 0 0 0 0 0 0 0 0 0 0 0 0 0 0 0 0
0 -0 -0 -0 -0 -0 0 0 0 0 0 0 0 0 0 0 0 0 0 0 0 0 0 0 0 0 0 0 0 0 0 0 0 0 0 0 0 0 0 0 0 0 0 0
0 0 -0 -0 -0 -0 0 0 0 0 0 0 0 0 0 0 0 0 0 0 0 0 0 0 0 0 0 0 0 0 0 0 0 0 0 0 0 0 0 0 0 0 0 0
0 0 0 0 -0 0 0 0 0 0 0 -0 0 0 0 0 0 0 0 0 0 0 0 0 0 0 0 0 0 0 0 0 0 0 0 0 0 0 0 0 0 0 0 0
0 0 0 0 0 0 0 0 0 0 0 0 -0 0 0 0 0 0 0 -0 0 0 0 0 0 0 0 0 0 0 0 0 0 0 0 0 0 0 0 0 0 0 0 0
0 0 0 0 0 0 0 0 0 0 0 0 0 -0 0 -0 -0 0 0 0 0 0 0 0 0 0 0 0 0 0 0 0 0 0 0 0 0 0 0 0 0 0 0 0
0 0 0 0 0 0 0 0 0 0 0 0 0 0 -0 -0 -0 0 0 0 0 0 0 0 0 0 0 0 0 0 0 0 0 0 0 0 0 0 0 0 0 0 0 0
0 0 0 0 0 0 0 0 0 0 0 0 -0 -0 -0 -0 0 0 0 0 0 0 0 0 0 0 0 0 0 0 0 0 0 0 0 0 0 0 0 0 0 0 0 0
0 0 0 0 0 0 0 0 0 0 -0 0 0 0 0 -0 -0 0 0 0 0 0 0 0 0 0 0 0 0 0 0 0 0 0 0 0 0 0 0 0 0 0 0 0
0 0 0 0 0 0 0 0 0 0 0 0 0 -0 -0 0 -0 0 0 0 0 0 0 0 0 0 0 0 0 0 0 0 0 0 0 0 0 0 0 0 0 0 0 0
0 0 0 0 0 0 0 0 0 0 0 0 0 -0 0 0 0 -0 0 0 0 0 0 0 0 0 0 0 0 0 0 0 0 0 0 0 0 0 0 0 0 0 0 0
0 0 0 0 0 0 0 0 0 0 0 0 0 0 0 0 0 0 0 -0 -0 -0 0 0 0 0 0 0 0 0 0 0 0 0 0 0 0 0 0 0 0 0 0 0
-0 -0 0 0 0 0 0 0 0 0 0 0 0 0 0 0 0 0 -0 -0 -0 -0 -0 -0 0 0 0 0 0 0 0 0 0 0 0 0 0 0 0 0 0 0 0 0
-0 -0 0 0 0 0 0 0 0 0 0 0 0 0 0 0 0 0 0 0 -0 -0 0 0 0 0 0 0 0 0 0 0 0 0 0 0 0 0 0 0 0 0 0 0
-0 -0 0 0 0 0 0 0 0 0 0 0 0 0 0 -0 0 0 0 0 0 0 0 0 0 0 0 0 0 0 0 0 0 0 0 0 0 0 0 0 0 0 0 0
-0 -0 0 0 0 0 0 0 0 0 0 0 0 0 0 0 0 0 0 0 0 0 0 0 0 0 0 0 0 0 0 0 0 0 0 0 0 0 0 0 0 0 0 0
0 0 0 0 0 0 0 0 0 0 0 0 0 0 0 0 0 0 0 0 0 0 0 0 0 0 0 0 0 0 0 0 0 0 0 0 0 0 0 0 0 0 0 0
0 0 0 0 0 0 0 0 0 0 0 0 0 0 0 0 0 0 0 0 0 0 0 0 0 0 0 0 0 0 0 0 0 0 0 0 0 0 0 0 0 0 0 0
0 0 0 0 0 0 0 0 0 0 0 0 0 0 0 0 0 0 0 0 0 0 0 0 0 0 0 0 0 0 0 0 0 0 0 0 0 0 0 0 0 0 0 0
0 0 0 0 0 0 0 0 0 0 0 0 0 0 0 0 0 0 0 0 0 0 0 0 0 0 0 -0 -0 -0 0 0 0 0 0 0 0 0 0 0 0 0 0 0
0 0 0 0 0 0 0 0 0 0 0 0 0 0 0 0 0 0 0 0 0 0 0 0 0 0 0 -0 -0 0 0 0 0 0 0 0 0 0 0 0 0 0 0 0
0 0 0 0 0 0 0 0 0 0 0 0 0 0 0 0 0 0 0 0 0 0 0 0 0 0 0 0 0 -0 0 0 0 0 0 0 0 0 0 0 0 0 0 0
0 0 0 0 0 0 0 0 0 0 0 0 0 0 0 0 0 0 0 0 0 0 0 0 0 0 0 0 -0 0 0 0 0 0 0 0 0 0 0 0 0 0 0 0
0 0 0 0 0 0 0 0 0 0 0 0 0 0 0 0 0 0 0 0 0 0 0 0 0 0 0 0 0 0 0 0 0 0 0 0 0 0 0 0 0 0 0 0
0 0 0 0 0 0 0 0 0 0 0 0 0 0 0 0 0 0 0 0 0 0 0 0 0 0 0 0 0 0 0 0 0 0 0 0 0 0 0 0 0 0 0 0
Wind_Speed_500mb
70 68 70 71 73 76 57 14 5 3 11 9 5 7 7 5 10 6 6 6 8 5 6 4 6 8 6 3 14 13 3 6 8 4 6 1 5 5 14 15 14 3 2 6
68 70 72 72 75 52 44 14 3 8 5 6 9 4 1 3 3 5 7 6 2 4 8 7 8 5 3 6 7 9 11 6 7 6 7 4 3 6 7 10 5 13 10 5
66 69 72 76 73 40 21 9 4 12 13 13 8 6 7 5 9 9 6 7 6 6 5 8 11 13 4 12 5 9 10 9 6 7 15 8 10 10 12 5 7 13 10 10
61 64 70 78 70 40 15 16 8 8 8 10 15 13 13 5 7 8 5 5 2 8 6 4 3 8 13 9 15 9 3 15 8 8 4 2 13 18 14 6 9 8 6 10
60 62 67 74 75 34 45 12 11 15 14 21 23 21 21 18 5 15 7 10 13 11 8 8 1 3 5 7 7 6 10 7 8 4 9 10 14 11 7 8 6 3 4 8
57 58 62 68 70 64 28 22 18 5 24 13 10 10 20 21 9 21 22 6 17 21 12 11 14 21 23 11 7 7 12 9 1 4 4 4 3 7 6 7 9 7 8 11
54 54 56 58 59 57 52 37 23 13 12 14 5 17 8 23 20 11 17 27 8 6 13 27 19 34 41 43 30 16 8 7 4 16 16 25 8 12 6 11 10 9 6 6
51 49 48 48 49 44 47 43 19 13 9 9 12 30 15 25 20 14 14 22 18 5 10 2 4 5 3 15 22 20 8 8 8 7 12 5 2 5 6 3 4 6 5 9
49 44 41 41 41 40 32 37 29 11 3 18 12 10 23 10 12 9 12 20 28 7 6 6 3 3 5 4 6 11 18 10 6 8 14 14 9 4 7 3 6 4 10 16
47 41 37 36 34 32 29 23 27 14 9 17 19 11 9 12 6 4 7 19 22 23 5 5 3 4 4 3 3 8 6 7 4 7 4 8 7 4 6 7 5 13 18 20
46 38 35 33 34 30 20 12 16 18 10 20 21 19 12 13 12 7 12 4 9 7 6 2 4 3 6 6 5 3 5 3 4 4 5 7 17 4 5 8 8 18 22 28
46 35 33 35 35 28 15 12 11 11 9 8 20 23 25 17 15 9 11 5 2 6 4 4 5 5 5 6 5 4 3 6 4 5 5 13 23 27 11 13 16 22 29 32
43 34 30 29 27 23 22 20 13 10 8 8 10 12 16 19 17 14 7 5 4 5 7 6 5 8 1 4 5 6 5 6 6 11 9 12 16 13 14 16 17 20 22 30
43 32 26 19 16 17 17 20 19 8 3 0 1 6 10 13 16 15 11 12 15 14 11 9 6 6 3 4 6 2 4 1 9 8 11 19 10 16 19 21 21 24 27 29
44 31 23 8 5 10 11 14 17 19 4 2 3 2 7 6 7 11 8 6 8 11 7 7 5 6 6 5 4 5 2 5 3 5 9 3 3 12 19 23 26 28 31 34
43 29 18 4 4 14 7 3 10 17 15 4 2 2 1 1 6 10 18 15 11 12 8 7 7 5 1 4 4 4 8 12 8 11 5 9 7 7 19 22 25 27 29 32
37 21 10 4 7 11 4 1 3 12 12 6 5 4 2 1 6 8 11 15 11 8 8 6 6 5 4 4 5 26 17 17 18 15 12 5 11 6 14 20 24 24 24 27
35 14 12 11 10 10 8 7 5 8 6 3 3 3 2 1 2 4 5 7 8 7 7 6 5 6 2 3 13 28 22 18 13 12 13 8 4 6 11 20 19 21 26 30
33 16 14 15 15 7 9 11 15 12 5 2 3 3 2 2 3 4 3 4 4 4 4 5 5 4 4 6 35 32 28 13 16 13 6 4 4 6 12 15 20 22 26 28
29 13 7 6 6 10 13 6 4 4 5 7 6 6 3 6 4 3 4 3 4 4 4 7 1 2 2 14 23 24 23 15 18 14 11 7 6 7 9 12 16 19 23 26
24 10 8 8 9 7 6 5 6 6 6 11 9 17 3 8 4 4 0 4 3 4 5 4 3 4 12 27 28 25 20 16 12 8 11 10 10 10 12 15 18 22 25 31
41 29 38 16 8 6 6 6 4 8 6 11 8 8 12 7 7 5 5 2 4 3 12 5 4 5 26 38 34 28 22 19 16 10 13 17 18 18 18 18 21 29 31 32
32 5 6 5 7 3 11 13 7 6 12 16 13 6 8 7 6 6 4 6 3 12 5 4 4 17 34 38 36 32 24 21 18 14 21 24 23 19 16 16 17 22 25 28
7 5 8 10 9 10 11 9 6 11 13 23 16 10 6 5 6 3 5 4 6 4 5 6 7 29 40 39 36 34 29 25 20 22 25 25 23 18 15 14 17 17 17 19
8 7 10 11 13 13 9 14 10 12 24 27 14 9 6 4 5 1 6 7 6 6 5 4 14 36 45 44 39 31 31 29 24 33 29 25 20 14 10 9 11 14 14 13
8 11 9 12 9 12 4 9 14 19 29 20 9 6 5 5 4 7 8 6 8 4 5 11 26 39 42 42 38 32 32 31 30 36 30 22 15 9 4 5 8 9 12 17
7 9 16 21 26 24 21 14 9 15 12 4 6 9 5 7 4 5 6 7 3 10 14 22 27 40 45 42 38 36 36 33 35 36 28 19 10 5 6 4 1 6 7 10
Wind_Direction_500mb
349 350 349 351 349 342 351 13 110 154 44 155 211 177 200 236 141 78 85 102 114 148 147 37 91 107 51 349 137 155 49 138 184 91 4 166 60 163 165 209 190 80 301 172
354 352 354 355 353 351 347 357 19 38 117 122 143 0 294 287 109 107 113 137 117 141 148 139 130 83 355 145 120 148 176 42 148 147 150 112 107 105 97 103 109 176 207 189
358 357 358 359 358 1 16 20 43 31 70 42 58 20 15 118 36 77 107 119 112 115 93 47 155 148 195 87 125 148 104 110 121 267 275 134 165 172 167 144 172 160 218 154
1 2 2 6 11 15 41 32 46 16 360 17 44 31 3 24 72 53 36 88 161 128 116 107 113 157 129 116 165 102 134 167 136 37 215 253 141 158 169 155 144 228 129 182
9 6 8 11 19 36 56 53 24 11 17 7 11 13 13 19 61 6 31 82 83 66 72 19 129 146 148 160 105 81 15 45 82 43 352 127 100 71 105 62 103 239 129 146
11 9 10 14 20 33 50 45 46 25 31 108 357 1 3 334 284 46 53 64 99 70 31 7 73 90 76 62 122 119 135 134 14 156 111 12 97 16 358 70 45 354 244 61
9 9 11 15 22 29 35 33 41 36 46 62 45 339 329 33 32 73 30 39 65 26 129 104 96 71 71 60 48 42 104 157 233 215 201 235 76 41 25 102 75 55 74 35
7 7 9 14 20 25 30 32 43 41 69 360 20 16 8 29 38 44 46 32 4 7 139 105 62 35 102 62 45 33 57 163 122 157 198 78 207 25 9 355 116 74 3 344
4 4 7 11 16 21 24 34 38 57 14 18 322 345 15 20 355 22 18 9 23 53 60 54 62 80 1 63 101 51 52 61 178 125 218 228 81 52 10 135 232 74 0 352
2 0 2 4 10 10 13 19 29 55 76 19 27 28 3 5 12 2 340 344 359 18 47 69 74 101 350 143 63 348 10 26 123 146 121 109 52 4 175 226 59 16 0 346
1 360 358 2 5 6 10 29 50 71 78 44 51 51 30 28 29 20 344 272 24 23 64 65 104 95 81 101 46 21 33 17 81 122 143 194 12 76 283 18 351 347 334 328
358 358 358 358 4 14 38 57 63 57 71 83 77 62 46 41 31 15 25 73 26 26 71 76 113 111 106 138 146 63 179 22 103 20 85 69 65 95 68 15 342 336 329 326
358 354 353 3 14 39 67 69 53 62 62 64 65 42 45 48 36 32 11 51 83 70 89 96 91 96 264 131 116 120 86 9 96 165 109 114 102 86 42 8 353 341 332 326
352 349 350 359 31 44 52 54 42 51 33 324 166 67 54 49 36 35 70 88 91 88 72 76 74 96 357 90 95 79 22 85 126 101 108 134 104 33 9 2 360 351 341 336
346 341 341 346 40 31 23 39 35 29 33 298 280 212 38 37 47 45 94 108 69 51 68 56 73 99 141 86 148 109 359 121 178 104 127 56 69 12 346 358 356 350 346 342
341 335 338 351 325 323 327 295 10 13 8 348 266 293 168 82 113 105 129 115 81 88 78 90 95 89 74 122 106 107 108 101 90 127 121 126 58 1 344 352 351 352 352 351
340 327 322 323 351 359 8 110 336 354 4 3 304 332 206 238 150 147 132 126 112 98 104 82 110 107 63 114 154 160 146 121 105 91 98 117 30 359 353 352 351 353 356 356
340 308 280 279 288 297 298 330 321 325 343 342 296 279 300 47 98 125 148 149 128 68 108 116 120 125 116 154 138 152 150 139 116 91 41 101 44 21 19 354 2 9 9 5
338 311 268 270 269 245 235 292 294 277 256 268 228 253 189 187 128 128 105 136 89 106 105 97 174 150 211 159 159 169 170 170 158 134 87 112 70 47 12 22 25 24 14 9
334 310 235 229 222 242 292 297 248 240 224 217 245 206 224 187 159 118 162 42 105 153 82 123 55 213 156 159 166 165 169 162 158 154 146 136 101 81 53 51 36 34 27 22
350 313 252 251 251 245 230 246 227 173 227 207 227 202 212 204 206 151 2 126 131 193 136 238 193 237 180 165 159 155 155 150 148 161 139 136 137 123 104 78 54 46 40 38
323 296 281 274 201 195 230 214 184 214 231 193 192 195 193 181 180 170 163 159 183 205 145 203 230 167 162 161 160 160 156 151 138 143 133 138 135 126 108 88 70 58 51 48
317 281 276 229 167 193 219 196 199 214 190 180 174 161 164 142 169 102 175 185 125 134 199 242 222 147 163 164 160 158 155 149 148 139 138 137 135 126 109 90 69 55 50 51
278 247 278 207 195 227 210 214 197 194 164 160 154 125 177 149 155 130 179 88 158 195 223 231 163 174 168 167 166 163 161 158 157 155 145 139 134 126 101 76 59 49 40 41
236 215 244 229 265 277 278 268 252 201 168 148 126 109 158 123 127 104 119 169 226 227 225 178 159 166 165 167 169 166 163 164 165 162 153 146 138 128 104 54 28 25 34 37
234 237 271 271 289 289 299 286 253 199 165 141 119 128 163 163 158 176 200 192 223 200 193 155 158 164 167 170 171 170 167 170 171 167 162 157 152 143 116 46 33 60 66 57
251 261 263 272 278 267 288 317 302 195 179 157 136 178 160 120 186 207 189 212 192 165 157 162 169 171 171 172 170 171 172 173 173 172 172 174 189 262 285 209 213 66 65 58
Wind_Speed_850mb
70 68 70 71 73 76 57 14 5 3 11 9 5 7 7 5 10 6 6 6 8 5 6 4 6 8 6 3 14 13 3 6 8 4 6 1 5 5 14 15 14 3 2 6
68 70 72 72 75 52 44 14 3 8 5 6 9 4 1 3 3 5 7 6 2 4 8 7 8 5 3 6 7 9 11 6 7 6 7 4 3 6 7 10 5 13 10 5
66 69 72 76 73 40 21 9 4 12 13 13 8 6 7 5 9 9 6 7 6 6 5 8 11 13 4 12 5 9 10 9 6 7 15 8 10 10 12 5 7 13 10 10
61 64 70 78 70 40 15 16 8 8 8 10 15 13 13 5 7 8 5 5 2 8 6 4 3 8 13 9 15 9 3 15 8 8 4 2 13 18 14 6 9 8 6 10
60 62 67 74 75 34 45 12 11 15 14 21 23 21 21 18 5 15 7 10 13 11 8 8 1 3 5 7 7 6 10 7 8 4 9 10 14 11 7 8 6 3 4 8
57 58 62 68 70 64 28 22 18 5 24 13 10 10 20 21 9 21 22 6 17 21 12 11 14 21 23 11 7 7 12 9 1 4 4 4 3 7 6 7 9 7 8 11
54 54 56 58 59 57 52 37 23 13 12 14 5 17 8 23 20 11 17 27 8 6 13 27 19 34 41 43 30 16 8 7 4 16 16 25 8 12 6 11 10 9 6 6
51 49 48 48 49 44 47 43 19 13 9 9 12 30 15 25 20 14 14 22 18 5 10 2 4 5 3 15 22 20 8 8 8 7 12 5 2 5 6 3 4 6 5 9
49 44 41 41 41 40 32 37 29 11 3 18 12 10 23 10 12 9 12 20 28 7 6 6 3 3 5 4 6 11 18 10 6 8 14 14 9 4 7 3 6 4 10 16
47 41 37 36 34 32 29 23 27 14 9 17 19 11 9 12 6 4 7 19 22 23 5 5 3 4 4 3 3 8 6 7 4 7 4 8 7 4 6 7 5 13 18 20
46 38 35 33 34 30 20 12 16 18 10 20 21 19 12 13 12 7 12 4 9 7 6 2 4 3 6 6 5 3 5 3 4 4 5 7 17 4 5 8 8 18 22 28
46 35 33 35 35 28 15 12 11 11 9 8 20 23 25 17 15 9 11 5 2 6 4 4 5 5 5 6 5 4 3 6 4 5 5 13 23 27 11 13 16 22 29 32
43 34 30 29 27 23 22 20 13 10 8 8 10 12 16 19 17 14 7 5 4 5 7 6 5 8 1 4 5 6 5 6 6 11 9 12 16 13 14 16 17 20 22 30
43 32 26 19 16 17 17 20 19 8 3 0 1 6 10 13 16 15 11 12 15 14 11 9 6 6 3 4 6 2 4 1 9 8 11 19 10 16 19 21 21 24 27 29
44 31 23 8 5 10 11 14 17 19 4 2 3 2 7 6 7 11 8 6 8 11 7 7 5 6 6 5 4 5 2 5 3 5 9 3 3 12 19 23 26 28 31 34
43 29 18 4 4 14 7 3 10 17 15 4 2 2 1 1 6 10 18 15 11 12 8 7 7 5 1 4 4 4 8 12 8 11 5 9 7 7 19 22 25 27 29 32
37 21 10 4 7 11 4 1 3 12 12 6 5 4 2 1 6 8 11 15 11 8 8 6 6 5 4 4 5 26 17 17 18 15 12 5 11 6 14 20 24 24 24 27
35 14 12 11 10 10 8 7 5 8 6 3 3 3 2 1 2 4 5 7 8 7 7 6 5 6 2 3 13 28 22 18 13 12 13 8 4 6 11 20 19 21 26 30
33 16 14 15 15 7 9 11 15 12 5 2 3 3 2 2 3 4 3 4 4 4 4 5 5 4 4 6 35 32 28 13 16 13 6 4 4 6 12 15 20 22 26 28
29 13 7 6 6 10 13 6 4 4 5 7 6 6 3 6 4 3 4 3 4 4 4 7 1 2 2 14 23 24 23 15 18 14 11 7 6 7 9 12 16 19 23 26
24 10 8 8 9 7 6 5 6 6 6 11 9 17 3 8 4 4 0 4 3 4 5 4 3 4 12 27 28 25 20 16 12 8 11 10 10 10 12 15 18 22 25 31
41 29 38 16 8 6 6 6 4 8 6 11 8 8 12 7 7 5 5 2 4 3 12 5 4 5 26 38 34 28 22 19 16 10 13 17 18 18 18 18 21 29 31 32
32 5 6 5 7 3 11 13 7 6 12 16 13 6 8 7 6 6 4 6 3 12 5 4 4 17 34 38 36 32 24 21 18 14 21 24 23 19 16 16 17 22 25 28
7 5 8 10 9 10 11 9 6 11 13 23 16 10 6 5 6 3 5 4 6 4 5 6 7 29 40 39 36 34 29 25 20 22 25 25 23 18 15 14 17 17 17 19
8 7 10 11 13 13 9 14 10 12 24 27 14 9 6 4 5 1 6 7 6 6 5 4 14 36 45 44 39 31 31 29 24 33 29 25 20 14 10 9 11 14 14 13
8 11 9 12 9 12 4 9 14 19 29 20 9 6 5 5 4 7 8 6 8 4 5 11 26 39 42 42 38 32 32 31 30 36 30 22 15 9 4 5 8 9 12 17
7 9 16 21 26 24 21 14 9 15 12 4 6 9 5 7 4 5 6 7 3 10 14 22 27 40 45 42 38 36 36 33 35 36 28 19 10 5 6 4 1 6 7 10
Wind_Direction_850mb
349 350 349 351 349 342 351 13 110 154 44 155 211 177 200 236 141 78 85 102 114 148 147 37 91 107 51 349 137 155 49 138 184 91 4 166 60 163 165 209 190 80 301 172
354 352 354 355 353 351 347 357 19 38 117 122 143 0 294 287 109 107 113 137 117 141 148 139 130 83 355 145 120 148 176 42 148 147 150 112 107 105 97 103 109 176 207 189
358 357 358 359 358 1 16 20 43 31 70 42 58 20 15 118 36 77 107 119 112 115 93 47 155 148 195 87 125 148 104 110 121 267 275 134 165 172 167 144 172 160 218 154
1 2 2 6 11 15 41 32 46 16 360 17 44 31 3 24 72 53 36 88 161 128 116 107 113 157 129 116 165 102 134 167 136 37 215 253 141 158 169 155 144 228 129 182
9 6 8 11 19 36 56 53 24 11 17 7 11 13 13 19 61 6 31 82 83 66 72 19 129 146 148 160 105 81 15 45 82 43 352 127 100 71 105 62 103 239 129 146
11 9 10 14 20 33 50 45 46 25 31 108 357 1 3 334 284 46 53 64 99 70 31 7 73 90 76 62 122 119 135 134 14 156 111 12 97 16 358 70 45 354 244 61
9 9 11 15 22 29 35 33 41 36 46 62 45 339 329 33 32 73 30 39 65 26 129 104 96 71 71 60 48 42 104 157 233 215 201 235 76 41 25 102 75 55 74 35
7 7 9 14 20 25 30 32 43 41 69 360 20 16 8 29 38 44 46 32 4 7 139 105 62 35 102 62 45 33 57 163 122 157 198 78 207 25 9 355 116 74 3 344
4 4 7 11 16 21 24 34 38 57 14 18 322 345 15 20 355 22 18 9 23 53 60 54 62 80 1 63 101 51 52 61 178 125 218 228 81 52 10 135 232 74 0 352
2 0 2 4 10 10 13 19 29 55 76 19 27 28 3 5 12 2 340 344 359 18 47 69 74 101 350 143 63 348 10 26 123 146 121 109 52 4 175 226 59 16 0 346
1 360 358 2 5 6 10 29 50 71 78 44 51 51 30 28 29 20 344 272 24 23 64 65 104 95 81 101 46 21 33 17 81 122 143 194 12 76 283 18 351 347 334 328
358 358 358 358 4 14 38 57 63 57 71 83 77 62 46 41 31 15 25 73 26 26 71 76 113 111 106 138 146 63 179 22 103 20 85 69 65 95 68 15 342 336 329 326
358 354 353 3 14 39 67 69 53 62 62 64 65 42 45 48 36 32 11 51 83 70 89 96 91 96 264 131 116 120 86 9 96 165 109 114 102 86 42 8 353 341 332 326
352 349 350 359 31 44 52 54 42 51 33 324 166 67 54 49 36 35 70 88 91 88 72 76 74 96 357 90 95 79 22 85 126 101 108 134 104 33 9 2 360 351 341 336
346 341 341 346 40 31 23 39 35 29 33 298 280 212 38 37 47 45 94 108 69 51 68 56 73 99 141 86 148 109 359 121 178 104 127 56 69 12 346 358 356 350 346 342
341 335 338 351 325 323 327 295 10 13 8 348 266 293 168 82 113 105 129 115 81 88 78 90 95 89 74 122 106 107 108 101 90 127 121 126 58 1 344 352 351 352 352 351
340 327 322 323 351 359 8 110 336 354 4 3 304 332 206 238 150 147 132 126 112 98 104 82 110 107 63 114 154 160 146 121 105 91 98 117 30 359 353 352 351 353 356 356
340 308 280 279 288 297 298 330 321 325 343 342 296 279 300 47 98 125 148 149 128 68 108 116 120 125 116 154 138 152 150 139 116 91 41 101 44 21 19 354 2 9 9 5
338 311 268 270 269 245 235 292 294 277 256 268 228 253 189 187 128 128 105 136 89 106 105 97 174 150 211 159 159 169 170 170 158 134 87 112 70 47 12 22 25 24 14 9
334 310 235 229 222 242 292 297 248 240 224 217 245 206 224 187 159 118 162 42 105 153 82 123 55 213 156 159 166 165 169 162 158 154 146 136 101 81 53 51 36 34 27 22
350 313 252 251 251 245 230 246 227 173 227 207 227 202 212 204 206 151 2 126 131 193 136 238 193 237 180 165 159 155 155 150 148 161 139 136 137 123 104 78 54 46 40 38
323 296 281 274 201 195 230 214 184 214 231 193 192 195 193 181 180 170 163 159 183 205 145 203 230 167 162 161 160 160 156 151 138 143 133 138 135 126 108 88 70 58 51 48
317 281 276 229 167 193 219 196 199 214 190 180 174 161 164 142 169 102 175 185 125 134 199 242 222 147 163 164 160 158 155 149 148 139 138 137 135 126 109 90 69 55 50 51
278 247 278 207 195 227 210 214 197 194 164 160 154 125 177 149 155 130 179 88 158 195 223 231 163 174 168 167 166 163 161 158 157 155 145 139 134 126 101 76 59 49 40 41
236 215 244 229 265 277 278 268 252 201 168 148 126 109 158 123 127 104 119 169 226 227 225 178 159 166 165 167 169 166 163 164 165 162 153 146 138 128 104 54 28 25 34 37
234 237 271 271 289 289 299 286 253 199 165 141 119 128 163 163 158 176 200 192 223 200 193 155 158 164 167 170 171 170 167 170 171 167 162 157 152 143 116 46 33 60 66 57
251 261 263 272 278 267 288 317 302 195 179 157 136 178 160 120 186 207 189 212 192 165 157 162 169 171 171 172 170 171 172 173 173 172 172 174 189 262 285 209 213 66 65 58